Location: Unspecified
(0.0000°N, 0.0000°E)
Time: 11:47:21
(UTC+00:00)

Envisat - Pass Details

Date: 19 January 2018
Orbit: 764 x 766 km, 98.2° (Epoch: 26 April)

Event Time Altitude Azimuth Distance (km) Brightness Sun altitude
Rises 19:04:46 0° 139° (SE) 3,227 6.0 -12.6°
Reaches altitude 10° 19:07:45 10° 120° (ESE) 2,298 5.1 -13.3°
Enters shadow 19:10:05 17° 94° (E) 1,850 4.4 -13.9°
